When you browse on this site, cookies collect data to enhance your experience and personalize the content and advertising you see.
Visit our Privacy Policy to learn more. By continuing to use the site, you agree to this use of cookies and data.
  • In Netherlands
  • List of Countries
  • For 7 days
  • Water Temperature
  • Satellite Maps
  • Weather Map
  • Weather Widgets
  • user-avatar
    Login

    Hourly Weather Satif

    Today, 20 March, Wednesday

    Time Temperature Precipitation Wind Pressure Humidity
    00:00 +2°C° 0 mm 3 mps 672 mmHg 88%
    01:00 +3°C° 0.1 mm 2 mps 672 mmHg 88%
    02:00 +3°C° 0.1 mm 2 mps 672 mmHg 88%
    03:00 +3°C° 0.1 mm 2 mps 671 mmHg 88%
    04:00 +3°C° 0 mm 2 mps 671 mmHg 89%
    05:00 +3°C° 0 mm 2 mps 672 mmHg 91%
    06:00 +3°C° 0 mm 2 mps 672 mmHg 92%
    07:00 +2°C° 0 mm 3 mps 672 mmHg 86%
    08:00 +3°C° 0 mm 3 mps 672 mmHg 80%
    09:00 +4°C° 0 mm 4 mps 672 mmHg 75%
    10:00 +3°C° 0.1 mm 5 mps 673 mmHg 70%
    11:00 +5°C° 0.1 mm 5 mps 673 mmHg 66%
    12:00 +5°C° 0.1 mm 6 mps 673 mmHg 62%
    13:00 +5°C° 0.1 mm 6 mps 673 mmHg 60%
    14:00 +5°C° 0.1 mm 6 mps 673 mmHg 58%
    15:00 +5°C° 0.1 mm 7 mps 672 mmHg 56%
    16:00 +4°C° 0 mm 6 mps 672 mmHg 62%
    17:00 +5°C° 0 mm 5 mps 672 mmHg 67%
    18:00 +4°C° 0 mm 4 mps 672 mmHg 73%
    19:00 +3°C° 0 mm 4 mps 672 mmHg 78%
    20:00 +3°C° 0 mm 3 mps 673 mmHg 83%
    21:00 +2°C° 0 mm 3 mps 673 mmHg 88%
    22:00 +2°C° 0.1 mm 3 mps 673 mmHg 89%
    23:00 +2°C° 0.1 mm 3 mps 672 mmHg 90%

    Tomorrow, 21 March, Thursday

    Time Temperature Precipitation Wind Pressure Humidity
    00:00 +2°C° 0.1 mm 3 mps 672 mmHg 92%
    01:00 +2°C° 0.2 mm 3 mps 672 mmHg 91%
    02:00 +2°C° 0.2 mm 3 mps 672 mmHg 91%
    03:00 +2°C° 0.2 mm 3 mps 671 mmHg 90%
    04:00 +1°C° 0.8 mm 4 mps 671 mmHg 91%
    05:00 +1°C° 0.8 mm 4 mps 671 mmHg 92%
    06:00 +3°C° 0.8 mm 4 mps 671 mmHg 92%
    07:00 +2°C° 0.2 mm 5 mps 671 mmHg 91%
    08:00 +3°C° 0.2 mm 6 mps 671 mmHg 89%
    09:00 +3°C° 0.2 mm 6 mps 671 mmHg 87%
    10:00 +4°C° 0.1 mm 6 mps 671 mmHg 85%
    11:00 +4°C° 0.1 mm 6 mps 671 mmHg 83%
    12:00 +5°C° 0.1 mm 6 mps 671 mmHg 81%
    13:00 +5°C° 0.7 mm 6 mps 671 mmHg 84%
    14:00 +5°C° 0.7 mm 6 mps 670 mmHg 87%
    15:00 +5°C° 0.7 mm 6 mps 670 mmHg 89%
    16:00 +4°C° 2 mm 6 mps 670 mmHg 91%
    17:00 +5°C° 2 mm 5 mps 670 mmHg 92%
    18:00 +5°C° 2 mm 5 mps 670 mmHg 93%
    19:00 +5°C° 1.1 mm 5 mps 670 mmHg 93%
    20:00 +4°C° 1.1 mm 6 mps 671 mmHg 93%
    21:00 +4°C° 1.1 mm 6 mps 671 mmHg 93%
    22:00 +4°C° 0.8 mm 6 mps 671 mmHg 94%
    23:00 +5°C° 0.8 mm 5 mps 671 mmHg 94%

    Day after tomorrow, 22 March, Friday

    Time Temperature Precipitation Wind Pressure Humidity
    00:00 +5°C° 0.8 mm 5 mps 671 mmHg 95%
    01:00 +5°C° 1.3 mm 4 mps 671 mmHg 95%
    02:00 +5°C° 1.3 mm 4 mps 671 mmHg 95%
    03:00 +5°C° 1.3 mm 4 mps 671 mmHg 95%
    04:00 +5°C° 1.5 mm 3 mps 671 mmHg 95%
    05:00 +5°C° 1.5 mm 3 mps 671 mmHg 95%
    06:00 +5°C° 1.5 mm 3 mps 671 mmHg 95%
    07:00 +7°C° 0.8 mm 3 mps 671 mmHg 93%
    08:00 +7°C° 0.8 mm 3 mps 672 mmHg 91%
    09:00 +7°C° 0.8 mm 4 mps 672 mmHg 88%
    10:00 +7°C° 1.3 mm 3 mps 672 mmHg 89%
    11:00 +7°C° 1.3 mm 3 mps 672 mmHg 90%
    12:00 +7°C° 1.3 mm 3 mps 672 mmHg 91%
    13:00 +8°C° 0.2 mm 3 mps 672 mmHg 83%
    14:00 +9°C° 0.2 mm 3 mps 672 mmHg 76%
    15:00 +9°C° 0.2 mm 3 mps 672 mmHg 68%
    16:00 +8°C° 0.1 mm 3 mps 672 mmHg 74%
    17:00 +8°C° 0.1 mm 3 mps 672 mmHg 79%
    18:00 +7°C° 0.1 mm 3 mps 672 mmHg 84%
    19:00 +5°C° 0 mm 3 mps 673 mmHg 88%
    20:00 +5°C° 0 mm 2 mps 673 mmHg 92%
    21:00 +6°C° 0 mm 1 mps 674 mmHg 96%
    22:00 +5°C° 0 mm 1 mps 674 mmHg 96%
    23:00 +5°C° 0 mm 1 mps 673 mmHg 97%

    23 March, Saturday

    Time Temperature Precipitation Wind Pressure Humidity
    00:00 +4°C° 0 mm 0 mps 673 mmHg 97%
    01:00 +4°C° 0 mm 1 mps 673 mmHg 97%
    02:00 +4°C° 0 mm 1 mps 673 mmHg 97%
    03:00 +4°C° 0 mm 1 mps 673 mmHg 96%
    04:00 +3°C° 0 mm 0 mps 673 mmHg 96%
    05:00 +2°C° 0 mm 0 mps 673 mmHg 95%
    06:00 +2°C° 0 mm 0 mps 673 mmHg 95%
    07:00 +5°C° 0 mm 1 mps 673 mmHg 86%
    08:00 +7°C° 0 mm 1 mps 674 mmHg 78%
    09:00 +9°C° 0 mm 1 mps 675 mmHg 69%
    10:00 +10°C° 0 mm 1 mps 675 mmHg 64%
    11:00 +11°C° 0 mm 1 mps 675 mmHg 58%
    12:00 +12°C° 0 mm 1 mps 675 mmHg 53%
    13:00 +12°C° 0.1 mm 1 mps 675 mmHg 53%
    14:00 +13°C° 0.1 mm 1 mps 674 mmHg 52%
    15:00 +13°C° 0.1 mm 1 mps 674 mmHg 52%
    16:00 +12°C° 0.1 mm 2 mps 674 mmHg 58%
    17:00 +10°C° 0.1 mm 2 mps 674 mmHg 65%
    18:00 +9°C° 0.1 mm 2 mps 673 mmHg 71%
    19:00 +8°C° 0.1 mm 2 mps 674 mmHg 76%
    20:00 +8°C° 0.1 mm 2 mps 674 mmHg 81%
    21:00 +7°C° 0.1 mm 2 mps 674 mmHg 86%
    22:00 +7°C° 0 mm 2 mps 674 mmHg 86%
    23:00 +7°C° 0 mm 2 mps 674 mmHg 87%

    24 March, Sunday

    Time Temperature Precipitation Wind Pressure Humidity
    00:00 +7°C° 0 mm 1 mps 673 mmHg 88%
    01:00 +7°C° 0 mm 1 mps 673 mmHg 86%
    02:00 +7°C° 0 mm 1 mps 673 mmHg 83%
    03:00 +7°C° 0 mm 1 mps 672 mmHg 81%
    04:00 +6°C° 0 mm 1 mps 672 mmHg 80%
    05:00 +6°C° 0 mm 1 mps 672 mmHg 79%
    06:00 +6°C° 0 mm 1 mps 672 mmHg 77%
    07:00 +8°C° 0 mm 1 mps 673 mmHg 69%
    08:00 +9°C° 0 mm 2 mps 674 mmHg 60%
    09:00 +12°C° 0 mm 2 mps 675 mmHg 52%
    10:00 +13°C° 0 mm 2 mps 675 mmHg 49%
    11:00 +14°C° 0 mm 2 mps 675 mmHg 47%
    12:00 +15°C° 0 mm 2 mps 675 mmHg 44%
    13:00 +15°C° 0.1 mm 2 mps 674 mmHg 45%
    14:00 +15°C° 0.1 mm 2 mps 674 mmHg 47%
    15:00 +15°C° 0.1 mm 1 mps 673 mmHg 48%
    16:00 +14°C° 0.2 mm 1 mps 673 mmHg 54%
    17:00 +13°C° 0.2 mm 1 mps 673 mmHg 60%
    18:00 +12°C° 0.2 mm 1 mps 673 mmHg 66%
    19:00 +12°C° 0.2 mm 1 mps 673 mmHg 70%
    20:00 +11°C° 0.2 mm 1 mps 673 mmHg 74%
    21:00 +10°C° 0.2 mm 1 mps 673 mmHg 78%
    22:00 +10°C° 0 mm 1 mps 673 mmHg 79%
    23:00 +8°C° 0 mm 0 mps 672 mmHg 81%

    25 March, Monday

    Time Temperature Precipitation Wind Pressure Humidity
    00:00 +7°C° 0 mm 0 mps 672 mmHg 83%
    01:00 +7°C° 0 mm 0 mps 671 mmHg 83%
    02:00 +7°C° 0 mm 0 mps 671 mmHg 83%
    03:00 +6°C° 0 mm 0 mps 671 mmHg 83%
    04:00 +6°C° 0 mm 0 mps 671 mmHg 83%
    05:00 +6°C° 0 mm 0 mps 671 mmHg 83%
    06:00 +6°C° 0 mm 0 mps 671 mmHg 84%
    07:00 +8°C° 0 mm 0 mps 672 mmHg 75%
    08:00 +10°C° 0 mm 0 mps 672 mmHg 66%
    09:00 +12°C° 0 mm 0 mps 673 mmHg 58%
    10:00 +13°C° 0 mm 0 mps 673 mmHg 54%
    11:00 +14°C° 0 mm 0 mps 673 mmHg 50%
    12:00 +16°C° 0 mm 1 mps 673 mmHg 46%
    13:00 +16°C° 0 mm 1 mps 673 mmHg 47%
    14:00 +16°C° 0 mm 2 mps 673 mmHg 48%
    15:00 +16°C° 0 mm 2 mps 672 mmHg 48%
    16:00 +15°C° 0 mm 2 mps 672 mmHg 55%
    17:00 +13°C° 0 mm 2 mps 672 mmHg 62%
    18:00 +12°C° 0 mm 2 mps 672 mmHg 68%
    19:00 +10°C° 0 mm 2 mps 672 mmHg 74%
    20:00 +10°C° 0 mm 1 mps 672 mmHg 80%
    21:00 +10°C° 0 mm 1 mps 672 mmHg 85%
    22:00 +9°C° 0 mm 1 mps 672 mmHg 87%
    23:00 +9°C° 0 mm 1 mps 672 mmHg 88%
    Show more